DW4219 Weather Reports


Display with metric or nautical units.
time (UTC)temp
F
wind
direction
speed
MPH
gust
MPH
rain 1hr
in
rain 24hr
in
rain mn
in
humidity
%
barometer
mb
20260902210052 78 204 16.0 34.0 0.00 0.00 0.00 12 1008.3
20260902204545 78 188 19.0 30.0 0.00 0.00 0.00 12 1008.3
20260902203043 77 228 21.0 37.0 0.00 0.00 0.00 12 1008.3
20260902201543 77 226 20.0 35.0 0.00 0.00 0.00 12 1008.4
20260902200038 77 205 21.0 33.0 0.00 0.00 0.00 13 1008.5
20260902194539 77 169 20.0 31.0 0.00 0.00 0.00 14 1008.7
20260902193034 77 200 16.0 36.0 0.00 0.00 0.00 15 1008.8
20260902191532 77 213 13.0 29.0 0.00 0.00 0.00 14 1009.1
20260902190032 77 190 15.0 30.0 0.00 0.00 0.00 19 1009.1
20260902184529 76 167 19.0 33.0 0.00 0.00 0.00 17 1009.2
20260902183036 76 157 15.0 31.0 0.00 0.00 0.00 20 1009.3
20260902181524 75 176 12.0 31.0 0.00 0.00 0.00 22 1009.5
20260902180021 74 174 14.0 24.0 0.00 0.00 0.00 22 1009.8
20260902174519 74 212 13.0 26.0 0.00 0.00 0.00 26 1010.1
20260902173017 73 172 14.0 27.0 0.00 0.00 0.00 25 1010.2
20260902171616 73 198 14.0 26.0 0.00 0.00 0.00 28 1010.3
20260902170014 72 182 12.0 26.0 0.00 0.00 0.00 28 1010.1
20260902164517 72 224 17.0 28.0 0.00 0.00 0.00 28 1010.0
20260902163011 71 217 18.0 27.0 0.00 0.00 0.00 30 1010.0
20260902161511 71 212 16.0 27.0 0.00 0.00 0.00 30 1010.1
20260902160010 71 208 12.0 30.0 0.00 0.00 0.00 33 1010.0
20260902154507 71 173 13.0 24.0 0.00 0.00 0.00 33 1009.9
20260902153005 70 172 13.0 28.0 0.00 0.00 0.00 34 1009.9
20260902151504 70 216 10.0 26.0 0.00 0.00 0.00 34 1010.1
20260902150004 70 217 10.0 19.0 0.00 0.00 0.00 31 1010.1
20260902144502 69 196 10.0 20.0 0.00 0.00 0.00 29 1010.1
20260902143002 69 199 6.0 12.0 0.00 0.00 0.00 28 1010.1
20260902141505 68 162 5.0 16.0 0.00 0.00 0.00 29 1010.1
20260902140002 67 231 8.0 17.0 0.00 0.00 0.00 28 1010.0
20260902134620 67 203 6.0 14.0 0.00 0.00 0.00 28 1009.7
20260902133104 65 226 10.0 18.0 0.00 0.00 0.00 28 1009.5
20260902131558 62 224 2.0 6.0 0.00 0.00 0.00 29 1009.9
20260902130057 58 55 0.0 3.0 0.00 0.00 0.00 39 1009.8
20260902124602 59 39 1.0 3.0 0.00 0.00 0.00 37 1009.7
20260902123050 65 214 3.0 8.0 0.00 0.00 0.00 28 1009.7
20260902121551 64 192 4.0 8.0 0.00 0.00 0.00 27 1009.7
20260902120046 65 204 4.0 11.0 0.00 0.00 0.00 28 1009.7
20260902114545 65 226 4.0 12.0 0.00 0.00 0.00 28 1009.7
20260902113045 66 235 4.0 11.0 0.00 0.00 0.00 30 1009.7
20260902111541 66 208 6.0 13.0 0.00 0.00 0.00 30 1009.6
20260902110039 66 200 7.0 13.0 0.00 0.00 0.00 31 1009.6
20260902104539 67 223 7.0 14.0 0.00 0.00 0.00 33 1009.8
20260902103043 67 219 8.0 14.0 0.00 0.00 0.00 34 1009.8
20260902101542 67 211 10.0 19.0 0.00 0.00 0.00 35 1009.8
20260902100030 68 226 7.0 15.0 0.00 0.00 0.00 35 1009.9
20260902094530 68 231 6.0 15.0 0.00 0.00 0.00 37 1009.9
20260902093026 68 202 10.0 16.0 0.00 0.00 0.00 38 1010.1
20260902091522 68 224 7.0 14.0 0.00 0.00 0.00 36 1010.1
20260902090019 68 219 8.0 16.0 0.00 0.00 0.00 35 1010.2
20260902084525 69 205 9.0 17.0 0.00 0.00 0.00 35 1010.3
20260902083014 69 192 10.0 19.0 0.00 0.00 0.00 35 1010.3
20260902081514 69 188 10.0 18.0 0.00 0.00 0.00 34 1010.3
20260902080010 70 205 11.0 19.0 0.00 0.00 0.00 35 1010.4
20260902074508 69 209 8.0 17.0 0.00 0.00 0.00 38 1010.4
20260902073007 69 211 10.0 16.0 0.00 0.00 0.00 42 1010.3
20260902071505 69 211 8.0 15.0 0.00 0.00 0.00 42 1010.3
20260902070002 70 224 6.0 13.0 0.00 0.00 0.00 41 1010.3
20260902064619 70 182 8.0 15.0 0.00 0.00 0.00 40 1010.4
20260902063059 70 217 6.0 15.0 0.00 0.00 0.00 40 1010.4
20260902061554 69 217 4.0 7.0 0.00 0.00 0.00 37 1010.5
20260902054550 70 146 5.0 10.0 0.00 0.00 0.00 35 1010.7
20260902053052 70 174 4.0 8.0 0.00 0.00 0.00 37 1010.8
20260902051549 70 160 5.0 10.0 0.00 0.00 0.00 34 1010.9
20260902050104 71 184 4.0 8.0 0.00 0.00 0.00 34 1011.0
20260902044605 72 214 7.0 13.0 0.00 0.00 0.00 33 1011.0
20260902043046 72 221 6.0 13.0 0.00 0.00 0.00 33 1011.1
20260902041546 72 201 7.0 14.0 0.00 0.00 0.00 33 1011.1
20260902040051 73 210 7.0 16.0 0.00 0.00 0.00 33 1011.1
20260902034554 73 211 10.0 15.0 0.00 0.00 0.00 34 1010.9
20260902033043 73 217 6.0 13.0 0.00 0.00 0.00 34 1010.9
20260902031545 73 219 6.0 19.0 0.00 0.00 0.00 34 1010.8
20260902030043 73 200 6.0 15.0 0.00 0.01 0.00 34 1010.7
20260902024550 74 183 7.0 21.0 0.00 0.01 0.00 34 1010.6
20260902023043 74 208 8.0 16.0 0.00 0.01 0.00 34 1010.5
20260902021549 74 217 11.0 17.0 0.00 0.01 0.00 33 1010.4
20260902020039 75 215 6.0 16.0 0.00 0.08 0.00 33 1010.4
20260902014542 75 229 9.0 19.0 0.00 0.08 0.00 33 1010.5
20260902013039 77 231 9.0 26.0 0.00 0.08 0.00 31 1010.6
20260902011536 77 198 7.0 23.0 0.00 0.08 0.00 32 1010.6
20260902010042 77 205 15.0 27.0 0.00 0.08 0.00 31 1010.7
20260902004534 78 233 15.0 25.0 0.00 0.08 0.00 29 1010.8
20260902003039 78 212 14.0 26.0 0.00 0.08 0.00 31 1011.0
20260902001533 78 237 13.0 25.0 0.00 0.08 0.00 31 1010.9
20260902000033 79 222 16.0 31.0 0.00 0.08 0.00 29 1010.9
20260901234531 79 212 13.0 25.0 0.00 0.08 0.00 30 1010.9
20260901233031 79 210 17.0 36.0 0.00 0.08 0.00 28 1011.0
20260901231632 80 177 16.0 26.0 0.00 0.08 0.00 28 1011.0
20260901230030 79 181 18.0 32.0 0.00 0.08 0.00 28 1011.0
20260901224528 79 229 21.0 31.0 0.00 0.08 0.00 30 1011.1
20260901223038 79 206 11.0 25.0 0.00 0.08 0.00 31 1011.1
20260901221525 79 216 16.0 30.0 0.00 0.08 0.00 33 1011.3
20260901220032 79 235 16.0 26.0 0.00 0.08 0.00 31 1011.3
20260901214521 79 240 17.0 29.0 0.00 0.08 0.00 29 1011.5
20260901213019 79 211 11.0 25.0 0.00 0.08 0.00 35 1011.7
20260901211516 78 198 11.0 24.0 0.00 0.08 0.00 36 1012.1